Home   Weather   Kolkata   Past weeks
Flag for India

Past Weather in Kolkata, West Bengal, India — Yesterday and Last 2 Weeks

Now
82 °F

Passing clouds.


Feels Like: 89 °F
Forecast: 98 / 78 °F
Wind: 5 mph from Southwest

Location: Calcutta / Dum Dum

Current Time: Apr 8, 2020 at 5:22:24 am

Latest Report: Apr 8, 2020 at 4:30 am


Visibility: 2 mi

Pressure: 29.74 "Hg

Humidity: 79%

Dew Point: 75 °F

Location of KolkataLocation

Past Weather in Kolkata — Graph

°F

Kolkata Temperature Yesterday

Maximum temperature yesterday: 102 °F (at 1:00 pm)
Minimum temperature yesterday: 81 °F (at 3:00 am)
Average temperature yesterday: 89 °F

High & Low Weather Summary for the Past Weeks

 TemperatureHumidityPressure
High102 °F (Apr 7, 1:00 pm)100% (Mar 24, 5:30 am)29.89 "Hg (Mar 24, 5:30 am)
Low68 °F (Mar 24, 3:30 am)17% (Apr 6, 3:00 pm)29.62 "Hg (Apr 2, 4:00 pm)
Average87 °F60%29.79 "Hg
* Reported Mar 24 3:30 am — Apr 8 4:00 am, Kolkata. Weather by CustomWeather, © 2020

Note: Actual official high and low records may vary slightly from our data, if they occured in-between our weather recording intervals... More about our weather records

Kolkata Weather History for the Previous 24 Hours

Scroll right to see more
 ConditionsComfort  
Time TempWeatherWind HumidityBarometerVisibility
4:00 am
Wed, Apr 8
82 °FPassing clouds.7 mph79%29.74 "Hg2 mi
3:30 am82 °FPassing clouds.9 mph79%29.74 "Hg2 mi
3:00 am82 °FPassing clouds.8 mph79%29.74 "Hg2 mi
2:30 am82 °FPassing clouds.9 mph74%29.74 "Hg2 mi
2:00 am82 °FPassing clouds.10 mph74%29.71 "Hg2 mi
1:30 am84 °FPassing clouds.12 mph70%29.74 "Hg2 mi
1:00 am84 °FPassing clouds.15 mph70%29.74 "Hg2 mi
12:30 am84 °FPassing clouds.12 mph70%29.77 "Hg2 mi
12:00 am82 °FPassing clouds.10 mph79%29.77 "Hg2 mi
11:30 pm
Tue, Apr 7
81 °FPassing clouds.10 mph94%29.77 "Hg2 mi
11:00 pm81 °FPassing clouds.9 mph89%29.77 "Hg2 mi
10:30 pm81 °FPassing clouds.8 mph89%29.77 "Hg2 mi
10:00 pm82 °FPassing clouds.10 mph79%29.77 "Hg2 mi
9:30 pm84 °FPassing clouds.10 mph70%29.74 "Hg2 mi
9:00 pm84 °FHaze.9 mph66%29.74 "Hg2 mi
8:30 pm84 °FHaze.9 mph62%29.74 "Hg2 mi
8:00 pm86 °FHaze.9 mph62%29.71 "Hg2 mi
7:30 pm90 °FHaze.12 mph41%29.71 "Hg2 mi
7:00 pm90 °FHaze.10 mph46%29.68 "Hg2 mi
6:30 pm91 °FHaze.10 mph52%29.68 "Hg2 mi
6:00 pm91 °FHaze.13 mph52%29.68 "Hg2 mi
5:30 pm93 °FHaze.12 mph49%29.65 "Hg2 mi
5:00 pm95 °FHaze.15 mph41%29.68 "Hg3 mi
4:30 pm97 °FHaze.16 mph44%29.68 "Hg3 mi
4:00 pm100 °FHaze.10 mph25%29.68 "Hg3 mi
3:30 pm102 °FHaze.8 mph24%29.68 "Hg3 mi
3:00 pm102 °FHaze.7 mph23%29.71 "Hg3 mi
2:30 pm102 °FHaze.8 mph23%29.71 "Hg3 mi
2:00 pm102 °FHaze.8 mph23%29.71 "Hg3 mi
1:30 pm102 °FHaze.5 mph24%29.74 "Hg3 mi
1:00 pm102 °FHaze.7 mph26%29.74 "Hg3 mi
12:30 pm100 °FHaze.6 mph29%29.77 "Hg2 mi
12:00 pm100 °FHaze.5 mph33%29.77 "Hg2 mi
11:30 am97 °FHaze.6 mph44%29.80 "Hg2 mi
11:00 am95 °FHaze.8 mph47%29.80 "Hg2 mi
10:30 am93 °FHaze.9 mph49%29.83 "Hg2 mi
10:00 am91 °FHaze.9 mph52%29.83 "Hg2 mi
9:30 am91 °FHaze.9 mph56%29.83 "Hg2 mi
9:00 am90 °FHaze.12 mph55%29.83 "Hg2 mi
8:30 am90 °FHaze.10 mph59%29.83 "Hg2 mi
8:00 am88 °FHaze.9 mph62%29.83 "Hg2 mi
7:30 am86 °FHaze.9 mph66%29.80 "Hg2 mi
7:00 am84 °FHaze.9 mph66%29.80 "Hg2 mi
6:30 am82 °FHaze.9 mph70%29.80 "Hg2 mi
6:00 am81 °FHaze.6 mph74%29.77 "Hg2 mi
5:30 am81 °FHaze.6 mph70%29.77 "Hg2 mi
5:00 am81 °FHaze.7 mph66%29.74 "Hg2 mi
Weather by CustomWeather, © 2020

See weather overview

Advertising